Location: Marne
(34.0056°N, 117.9064°W)
Time: 17:24:51
(UTC+00:00)

NOAA 11 - Pass Details

Date: 18 January 2020
Orbit: 832 x 850 km, 98.4° (Epoch: 23 February)

Event Time Altitude Azimuth Distance (km) Brightness Sun altitude
Rises 02:18:47 0° 156° (SSE) 3,399 7.3 -14.8°
Reaches altitude 10° 02:21:10 10° 153° (SSE) 2,468 6.5 -15.2°
Maximum altitude 02:26:34 61° 74° (ENE) 960 4.2 -16.3°
Drops below altitude 10° 02:31:59 10° 355° (N) 2,479 6.5 -17.4°
Sets 02:34:22 0° 352° (N) 3,416 7.3 -17.9°
